Wind_Speed
3 3 3 3 1 2 3 4 4 4 6 7 6 5 5 1 2 4 2 3 2 6 8 9 9 7 5 5 7 8 9 11 12 14 14 14 14 14 14 13 13 14 14 14
2 2 2 1 4 5 4 2 5 4 1 5 4 6 6 3 3 3 1 4 5 7 11 14 15 13 11 10 7 9 11 12 13 14 16 17 16 16 17 16 16 17 18 17
2 1 2 3 4 2 1 2 6 3 6 6 2 8 5 2 3 7 5 4 7 12 15 17 18 17 16 13 12 11 12 13 13 14 16 17 18 19 18 18 18 18 19 21
1 3 2 4 4 3 4 3 3 2 3 10 10 7 4 5 4 5 4 9 13 14 14 14 16 17 17 16 14 14 14 14 16 16 16 17 18 18 19 20 20 19 19 20
2 2 3 2 1 3 4 1 6 6 5 11 11 8 6 6 6 8 12 15 16 15 15 17 18 19 18 17 17 18 17 18 18 18 19 18 18 18 18 19 21 21 20 20
2 2 1 4 2 4 4 2 8 10 8 10 8 1 4 9 11 16 19 18 17 18 18 18 18 17 17 17 17 19 21 22 22 21 21 22 22 20 19 19 20 21 22 21
1 1 4 2 2 1 4 5 6 12 13 11 4 5 6 12 18 19 19 18 18 18 17 16 16 16 16 16 16 18 20 23 24 25 25 25 24 23 22 21 22 22 22 22
1 2 2 2 2 5 3 4 6 8 6 5 5 9 13 15 16 17 17 16 16 17 16 14 13 15 16 16 16 18 20 22 23 23 25 27 27 26 26 25 24 24 23 24
3 1 3 3 4 5 3 4 6 6 6 8 10 13 14 16 16 17 15 15 15 16 15 12 13 15 16 15 16 18 19 20 21 22 23 24 26 28 29 29 28 27 26 25
5 4 5 15 7 7 9 12 12 12 11 11 14 15 17 17 15 16 15 15 15 15 15 13 12 13 14 15 15 17 18 18 19 20 21 21 22 25 27 29 29 28 28 27
4 5 14 4 5 14 12 13 14 15 16 15 16 17 18 18 15 15 16 14 15 15 16 14 13 13 12 13 15 17 17 17 17 18 19 20 21 22 23 26 27 28 27 25
4 13 10 21 19 19 26 26 23 20 17 16 17 18 18 18 15 16 15 15 15 15 16 14 14 14 11 13 16 17 18 18 19 20 19 19 21 23 22 21 21 22 24 26
8 23 28 28 27 20 19 19 17 16 19 19 18 18 18 17 15 14 13 13 14 15 15 15 15 14 12 14 16 17 18 20 21 19 21 22 20 21 23 20 21 21 23 22
17 19 21 15 20 25 19 18 19 19 19 19 19 18 16 15 13 13 12 13 14 15 15 14 14 11 10 12 14 15 17 20 19 19 19 20 19 18 17 21 21 21 21 22
25 25 27 26 24 20 19 19 19 21 20 19 17 16 14 15 15 14 15 14 15 15 14 14 13 9 10 11 12 14 16 16 17 20 21 21 19 20 20 20 20 21 18 17
32 27 23 18 21 19 18 21 23 23 20 19 17 16 15 16 17 17 17 14 16 16 14 14 14 11 9 11 15 14 14 17 19 20 20 18 20 19 21 21 21 21 19 19
28 25 27 28 25 24 23 23 23 22 20 19 18 18 18 18 19 18 16 14 14 14 13 14 14 12 12 14 15 13 15 21 21 19 18 16 15 17 15 16 18 18 17 18
24 25 25 25 26 27 28 25 22 21 20 19 18 18 19 19 19 17 15 14 14 15 13 13 13 10 14 17 10 13 16 19 20 17 16 13 12 12 13 12 14 15 16 16
26 25 24 24 24 26 26 25 23 21 20 18 18 19 18 17 16 16 14 15 16 16 11 10 10 12 13 9 7 12 15 17 17 15 14 13 12 11 8 9 8 10 11 12
33 29 27 27 25 23 24 22 21 19 17 17 17 17 16 15 14 14 14 16 14 14 11 8 8 12 10 7 9 10 13 13 15 14 13 12 10 9 8 10 8 8 8 13
32 30 28 26 26 23 21 19 18 17 16 15 15 16 14 14 13 12 14 15 11 10 7 10 14 12 9 5 6 11 14 12 12 14 13 11 8 8 8 6 8 8 8 10
31 30 29 28 26 26 21 19 17 17 15 14 14 12 12 13 12 13 11 12 11 7 8 9 10 9 11 12 11 14 17 15 14 13 13 11 9 7 7 7 7 7 7 7
32 30 28 27 24 23 20 17 14 13 13 11 10 10 11 10 9 10 12 9 6 5 10 14 10 7 14 16 16 16 20 21 20 16 13 12 9 8 6 5 6 8 8 8
30 27 24 23 21 21 20 16 14 12 11 9 10 10 8 8 10 10 8 9 8 6 11 14 8 7 11 15 18 21 19 15 13 14 14 12 10 8 7 6 6 6 7 9
27 25 26 25 23 22 20 18 17 15 12 10 7 6 6 9 9 7 8 8 8 10 11 9 8 10 14 14 12 12 12 11 9 11 11 10 10 8 7 6 5 4 6 8
27 27 25 25 20 20 19 22 18 15 13 13 11 9 7 8 8 8 8 9 10 10 12 12 9 9 10 10 12 12 12 11 9 9 11 11 10 8 7 6 5 6 6 7
25 26 26 24 23 23 21 18 19 15 12 12 13 12 6 8 8 7 9 9 9 10 10 9 8 9 10 13 13 12 11 10 9 10 10 9 9 9 8 8 7 6 7 8
Wind_Direction
254 246 146 171 162 101 97 203 136 207 154 180 176 186 207 225 46 47 136 178 280 331 336 340 340 340 325 320 313 277 256 252 254 255 260 261 267 274 279 279 275 267 263 264
308 271 181 108 125 102 102 161 76 112 11 198 174 187 234 291 256 215 122 191 267 303 311 313 315 314 307 290 285 301 297 283 271 266 264 265 267 268 270 272 268 261 261 260
281 317 29 330 217 159 150 193 143 151 213 153 161 214 239 307 210 165 179 236 286 301 302 301 302 304 299 289 275 275 291 288 286 280 271 269 268 268 269 270 268 265 257 255
224 21 19 249 272 179 139 198 198 118 156 175 182 176 151 135 143 174 252 293 301 302 295 294 297 299 294 277 271 264 268 278 282 283 279 273 270 268 266 265 266 266 263 255
112 185 293 341 216 153 130 240 190 159 168 183 157 170 227 240 264 293 305 307 304 297 295 295 296 296 291 281 266 263 263 267 274 279 280 278 275 274 272 267 261 261 263 259
60 109 199 247 282 111 104 329 199 180 175 162 164 101 258 250 279 298 299 297 293 289 291 293 292 290 288 283 275 269 265 265 269 275 278 276 276 276 274 272 268 261 257 258
255 215 293 287 169 92 73 242 154 178 166 167 178 230 272 280 289 290 291 292 290 291 293 295 296 293 291 287 283 277 273 270 269 268 270 272 274 275 275 274 271 267 262 256
67 43 331 6 358 128 224 151 144 158 184 224 268 285 290 293 291 289 289 289 288 290 293 297 295 292 293 294 291 286 282 280 277 274 271 269 269 269 270 273 273 269 265 260
168 226 317 319 284 297 215 214 231 239 258 282 296 302 299 298 292 289 288 288 290 292 293 293 294 295 297 298 296 293 290 289 287 284 279 273 270 266 266 269 271 269 265 264
31 306 288 301 298 302 282 270 264 260 272 283 297 300 300 297 293 288 287 287 288 291 294 298 292 292 296 300 300 301 299 299 297 293 290 282 273 270 268 265 265 265 261 261
272 295 326 244 283 314 291 280 267 270 278 286 294 298 295 295 292 286 285 287 287 289 292 297 297 298 298 298 301 304 304 307 307 303 297 290 280 275 271 266 262 263 258 259
254 295 284 286 309 300 298 292 285 279 278 292 294 294 291 292 290 286 283 282 282 287 291 296 295 297 296 296 298 303 308 312 313 310 306 299 292 283 269 260 264 267 257 260
278 307 296 297 302 304 307 297 285 281 292 295 295 291 287 289 287 284 285 289 290 288 290 292 293 294 298 294 289 299 305 312 312 312 311 306 298 291 286 276 258 248 253 250
317 305 305 301 301 301 301 292 289 291 296 297 297 291 288 284 284 284 288 291 285 283 285 286 286 291 299 299 296 302 304 306 301 304 310 309 302 294 294 293 281 249 236 239
332 312 303 302 301 300 296 294 293 297 299 295 291 288 282 284 287 290 296 292 286 284 286 282 276 278 301 300 306 308 311 314 310 306 305 305 298 288 289 289 280 266 248 238
322 318 316 309 307 305 295 294 296 296 296 293 287 285 286 288 290 292 295 287 284 286 287 280 271 265 289 291 307 309 312 320 311 300 299 292 291 285 292 282 278 264 250 254
319 317 317 312 312 308 302 300 297 295 294 289 289 289 286 286 286 288 287 279 274 281 289 287 274 269 286 296 305 301 316 325 325 310 308 302 294 286 289 285 277 257 250 256
319 308 307 305 303 303 302 301 298 294 289 288 284 283 285 286 287 288 288 281 276 282 283 281 270 266 295 296 281 298 314 322 323 319 315 309 311 294 298 277 277 267 259 254
331 322 316 310 305 300 299 299 297 293 289 287 284 285 285 284 286 287 285 283 285 290 286 276 266 270 278 276 306 301 308 317 324 321 320 310 297 288 291 309 278 267 260 251
331 327 321 317 314 307 304 301 296 290 287 285 285 284 285 286 288 286 285 286 288 289 289 286 296 284 273 281 261 298 319 320 332 331 329 328 308 307 303 301 301 285 264 251
331 329 326 323 319 315 309 307 300 292 290 284 284 287 288 289 292 291 293 292 294 282 287 288 278 280 212 331 262 304 311 313 332 342 336 336 338 327 328 310 288 288 266 247
332 331 329 328 325 319 317 310 304 298 293 289 288 285 289 291 294 293 292 293 296 282 284 296 293 294 290 275 254 287 292 297 305 321 332 324 315 317 320 311 296 286 272 250
338 337 335 336 335 331 330 329 319 308 298 291 285 291 297 296 296 302 309 309 292 308 298 291 299 306 273 276 281 288 287 286 285 285 299 314 305 300 307 306 281 271 265 251
343 345 349 349 349 348 347 347 343 336 324 308 300 303 298 299 304 305 308 308 280 273 292 288 296 298 280 290 293 294 295 289 281 265 269 281 289 287 285 284 278 266 249 240
353 355 355 354 353 352 351 351 353 352 345 342 337 324 313 308 302 313 304 309 300 289 296 294 289 279 274 281 282 287 290 295 278 260 261 268 269 268 267 266 263 260 240 231
355 354 353 348 355 358 358 1 356 351 348 338 328 326 328 315 309 303 297 299 292 293 297 299 288 280 288 295 298 301 293 290 287 271 259 260 266 260 252 247 245 242 238 227
353 355 352 358 3 2 356 346 349 358 353 343 333 330 335 321 317 295 294 297 289 294 303 299 285 281 291 297 303 299 289 283 281 267 260 258 254 254 248 242 241 237 230 221
Height
1488 1484 1482 1485 1484 1498 1506 1514 1499 1504 1497 1497 1500 1501 1501 1501 1501 1501 1500 1500 1500 1499 1499 1499 1498 1497 1496 1496 1495 1495 1495 1495 1496 1496 1496 1496 1497 1497 1497 1497 1498 1498 1498 1499
1482 1476 1476 1480 1481 1484 1491 1511 1508 1508 1502 1498 1499 1500 1500 1500 1499 1500 1500 1500 1499 1499 1498 1496 1495 1495 1494 1494 1493 1493 1492 1492 1491 1492 1492 1492 1493 1492 1493 1493 1493 1493 1494 1494
1491 1476 1478 1486 1487 1488 1495 1500 1497 1499 1494 1495 1498 1497 1498 1498 1497 1498 1499 1499 1498 1497 1495 1494 1492 1491 1490 1489 1489 1489 1489 1489 1488 1488 1487 1487 1487 1487 1488 1488 1488 1488 1489 1489
1495 1490 1505 1487 1483 1481 1484 1491 1492 1491 1491 1492 1494 1496 1496 1496 1497 1497 1497 1496 1495 1493 1491 1490 1489 1487 1485 1485 1484 1484 1483 1483 1483 1483 1483 1482 1482 1481 1482 1482 1482 1483 1483 1484
1504 1506 1492 1483 1482 1484 1487 1487 1486 1487 1489 1491 1493 1495 1495 1494 1494 1493 1492 1491 1490 1488 1487 1485 1484 1483 1481 1480 1479 1479 1478 1478 1477 1477 1476 1476 1476 1476 1476 1475 1476 1476 1477 1478
1507 1505 1490 1490 1481 1480 1481 1493 1483 1484 1487 1489 1492 1499 1493 1491 1491 1489 1488 1486 1485 1483 1482 1480 1479 1477 1476 1474 1474 1473 1473 1472 1472 1472 1471 1470 1470 1470 1470 1470 1469 1469 1470 1471
1499 1505 1489 1483 1482 1481 1493 1495 1482 1483 1485 1488 1490 1489 1489 1489 1488 1485 1483 1481 1480 1478 1476 1475 1473 1471 1470 1469 1468 1467 1466 1465 1465 1465 1464 1464 1463 1463 1463 1463 1462 1462 1463 1464
1503 1505 1498 1484 1484 1492 1487 1483 1483 1484 1485 1485 1485 1486 1485 1484 1482 1480 1479 1477 1475 1473 1471 1470 1469 1466 1465 1464 1462 1461 1459 1458 1458 1457 1457 1457 1456 1456 1456 1455 1455 1455 1455 1456
1499 1491 1488 1486 1485 1484 1483 1483 1483 1482 1482 1482 1481 1481 1480 1479 1477 1475 1474 1472 1470 1468 1467 1466 1464 1462 1460 1459 1457 1455 1453 1452 1451 1450 1449 1449 1448 1448 1447 1448 1447 1447 1448 1448
1499 1492 1487 1484 1484 1483 1482 1481 1480 1479 1479 1478 1477 1476 1474 1473 1471 1470 1468 1467 1466 1464 1462 1461 1460 1458 1456 1454 1452 1450 1448 1447 1445 1443 1442 1441 1440 1439 1438 1439 1439 1439 1440 1441
1497 1489 1485 1483 1483 1482 1480 1478 1477 1476 1475 1473 1472 1471 1469 1467 1466 1464 1463 1462 1460 1459 1457 1456 1455 1453 1452 1450 1447 1445 1443 1441 1440 1438 1436 1434 1432 1432 1431 1431 1432 1431 1432 1434
1503 1490 1490 1483 1481 1479 1476 1474 1473 1471 1469 1468 1467 1465 1463 1462 1460 1459 1458 1456 1455 1453 1452 1451 1449 1448 1447 1445 1443 1440 1438 1436 1434 1432 1430 1428 1426 1424 1424 1424 1425 1425 1426 1426
1494 1489 1484 1479 1476 1473 1470 1468 1467 1466 1464 1462 1461 1459 1457 1455 1455 1453 1452 1451 1449 1448 1447 1445 1444 1443 1442 1440 1438 1436 1433 1431 1429 1427 1425 1422 1420 1418 1416 1416 1417 1418 1420 1421
1489 1484 1478 1474 1471 1468 1466 1464 1462 1460 1459 1456 1455 1453 1451 1449 1449 1448 1447 1446 1444 1443 1441 1440 1439 1438 1437 1435 1433 1431 1429 1427 1424 1423 1420 1418 1415 1413 1412 1410 1409 1410 1412 1415
1483 1480 1475 1469 1465 1463 1461 1459 1456 1455 1453 1450 1449 1447 1446 1444 1443 1442 1441 1440 1438 1437 1436 1435 1433 1433 1432 1431 1429 1427 1425 1422 1420 1417 1415 1412 1410 1408 1407 1406 1404 1404 1406 1408
1475 1472 1467 1463 1460 1458 1456 1453 1450 1448 1446 1444 1442 1441 1440 1439 1437 1436 1435 1434 1432 1431 1430 1429 1428 1428 1427 1426 1424 1422 1421 1418 1415 1412 1409 1406 1405 1403 1401 1399 1399 1399 1400 1402
1470 1463 1460 1457 1454 1451 1449 1447 1444 1441 1439 1437 1436 1435 1434 1433 1432 1430 1429 1428 1427 1426 1425 1424 1423 1423 1422 1421 1419 1417 1415 1412 1409 1406 1403 1400 1398 1397 1396 1394 1394 1394 1395 1397
1467 1462 1457 1453 1448 1444 1441 1439 1437 1435 1433 1432 1430 1429 1428 1427 1425 1424 1423 1422 1421 1420 1420 1419 1418 1419 1417 1416 1415 1413 1411 1408 1405 1401 1398 1396 1395 1393 1392 1390 1390 1390 1392 1393
1461 1455 1451 1446 1442 1438 1434 1432 1430 1428 1426 1425 1424 1423 1422 1421 1420 1418 1417 1416 1415 1414 1414 1414 1413 1413 1412 1411 1411 1409 1408 1405 1402 1398 1395 1393 1391 1389 1389 1388 1387 1387 1388 1389
1455 1450 1444 1439 1435 1432 1427 1425 1422 1421 1420 1419 1418 1417 1416 1415 1415 1413 1412 1411 1410 1409 1409 1409 1408 1407 1407 1406 1406 1405 1404 1402 1399 1396 1393 1390 1388 1387 1386 1386 1386 1386 1386 1387
1449 1443 1438 1432 1427 1424 1421 1419 1416 1414 1414 1413 1412 1411 1410 1410 1409 1408 1407 1405 1406 1405 1405 1405 1403 1402 1403 1403 1402 1401 1400 1398 1396 1393 1391 1389 1387 1386 1385 1384 1384 1384 1385 1386
1443 1437 1432 1427 1422 1418 1415 1413 1411 1409 1408 1407 1407 1406 1406 1405 1404 1403 1403 1402 1401 1401 1401 1400 1399 1399 1399 1397 1398 1397 1396 1395 1393 1392 1389 1387 1386 1385 1384 1383 1383 1383 1384 1384
1439 1433 1427 1422 1418 1413 1410 1408 1405 1404 1403 1402 1402 1402 1402 1401 1401 1400 1399 1398 1398 1398 1398 1397 1396 1397 1395 1394 1393 1392 1392 1391 1390 1389 1388 1386 1385 1384 1383 1382 1382 1382 1382 1383
1436 1430 1425 1420 1416 1411 1408 1405 1403 1401 1400 1399 1399 1399 1398 1397 1397 1397 1396 1395 1395 1395 1394 1393 1393 1395 1389 1389 1388 1387 1385 1384 1383 1383 1384 1383 1382 1381 1381 1380 1380 1380 1381 1382
1435 1429 1424 1419 1415 1411 1407 1404 1401 1399 1398 1397 1396 1396 1396 1395 1394 1394 1393 1392 1392 1392 1390 1389 1389 1388 1385 1385 1384 1383 1382 1380 1380 1379 1379 1379 1379 1379 1378 1378 1379 1379 1380 1381
1434 1429 1424 1419 1415 1411 1407 1404 1401 1398 1396 1395 1394 1393 1393 1392 1392 1391 1390 1390 1389 1388 1386 1385 1384 1383 1382 1381 1380 1379 1378 1377 1376 1376 1375 1376 1376 1376 1376 1377 1377 1378 1378 1379
1434 1430 1424 1418 1414 1411 1407 1404 1401 1398 1396 1395 1393 1392 1391 1390 1389 1388 1387 1386 1385 1384 1383 1382 1381 1380 1380 1378 1377 1376 1374 1374 1373 1373 1372 1373 1373 1374 1374 1375 1375 1376 1377 1378